QPF
0.01 0.01 0.01 0.01 0.01 0.01 0.02 0.03 0.01 0.01 0.01 0.01 0.01 0.01 0.02 0.01 0.01 0.00 0.00 0.00 0.01 0.01 0.03 0.03 0.05 0.06 0.07 0.08 0.09 0.10 0.10 0.09 0.07 0.06 0.06 0.05 0.05 0.04 0.07 0.07 0.04 0.02 0.02 0.04
0.02 0.01 0.00 0.00 0.01 0.02 0.04 0.04 0.03 0.01 0.01 0.01 0.01 0.01 0.01 0.01 0.01 0.01 0.01 0.01 0.01 0.02 0.03 0.04 0.05 0.04 0.03 0.03 0.04 0.05 0.08 0.09 0.06 0.04 0.06 0.06 0.08 0.06 0.06 0.05 0.03 0.02 0.03 0.02
0.00 0.01 0.00 0.01 0.02 0.03 0.06 0.07 0.05 0.02 0.01 0.01 0.00 0.01 0.01 0.01 0.01 0.01 0.01 0.01 0.01 0.02 0.02 0.03 0.03 0.03 0.03 0.03 0.03 0.04 0.04 0.05 0.05 0.06 0.07 0.09 0.10 0.08 0.07 0.04 0.03 0.03 0.03 0.03
0.00 0.00 0.01 0.01 0.03 0.05 0.07 0.07 0.05 0.02 0.01 0.01 0.01 0.01 0.01 0.01 0.01 0.01 0.01 0.02 0.02 0.02 0.01 0.01 0.02 0.03 0.03 0.03 0.03 0.03 0.03 0.04 0.05 0.07 0.07 0.09 0.09 0.08 0.06 0.04 0.04 0.04 0.03 0.03
0.00 0.00 0.01 0.02 0.03 0.04 0.06 0.06 0.04 0.01 0.01 0.01 0.01 0.01 0.01 0.01 0.01 0.02 0.02 0.03 0.04 0.02 0.01 0.01 0.01 0.01 0.02 0.03 0.02 0.02 0.02 0.04 0.05 0.05 0.05 0.07 0.07 0.06 0.06 0.05 0.05 0.05 0.03 0.03
0.00 0.00 0.01 0.01 0.02 0.02 0.03 0.06 0.04 0.01 0.01 0.01 0.01 0.01 0.01 0.01 0.02 0.02 0.03 0.04 0.05 0.03 0.02 0.01 0.00 0.01 0.01 0.02 0.01 0.01 0.02 0.03 0.04 0.04 0.04 0.05 0.05 0.05 0.05 0.04 0.05 0.04 0.03 0.02
0.00 0.00 0.00 0.00 0.00 0.01 0.02 0.04 0.02 0.01 0.01 0.01 0.01 0.02 0.01 0.02 0.03 0.02 0.04 0.05 0.04 0.03 0.03 0.02 0.01 0.01 0.01 0.01 0.01 0.01 0.01 0.02 0.04 0.04 0.04 0.03 0.03 0.03 0.04 0.03 0.03 0.02 0.03 0.02
0.00 0.00 0.00 0.00 0.00 0.01 0.02 0.02 0.01 0.01 0.00 0.01 0.01 0.01 0.02 0.02 0.03 0.03 0.06 0.06 0.04 0.03 0.04 0.03 0.00 0.01 0.02 0.01 0.01 0.01 0.02 0.03 0.03 0.03 0.03 0.03 0.04 0.04 0.04 0.03 0.02 0.02 0.03 0.02
0.01 0.01 0.00 0.00 0.00 0.01 0.01 0.01 0.01 0.00 0.00 0.01 0.01 0.01 0.02 0.03 0.03 0.04 0.06 0.07 0.05 0.04 0.04 0.03 0.00 0.01 0.02 0.02 0.01 0.01 0.02 0.02 0.02 0.02 0.02 0.03 0.03 0.03 0.03 0.02 0.02 0.02 0.02 0.02
0.00 0.00 0.00 0.00 0.00 0.01 0.01 0.01 0.01 0.00 0.01 0.01 0.02 0.02 0.03 0.03 0.03 0.03 0.04 0.06 0.04 0.03 0.03 0.02 0.01 0.01 0.02 0.02 0.01 0.01 0.02 0.02 0.01 0.01 0.02 0.03 0.03 0.03 0.02 0.01 0.01 0.02 0.02 0.02
0.00 0.00 0.00 0.00 0.01 0.01 0.01 0.01 0.01 0.01 0.01 0.01 0.02 0.02 0.03 0.03 0.03 0.03 0.03 0.04 0.03 0.03 0.03 0.03 0.01 0.01 0.01 0.01 0.01 0.02 0.02 0.01 0.01 0.02 0.03 0.03 0.03 0.03 0.02 0.02 0.02 0.02 0.02 0.02
0.00 0.00 0.00 0.00 0.00 0.01 0.01 0.01 0.01 0.01 0.01 0.01 0.01 0.02 0.02 0.02 0.02 0.03 0.03 0.03 0.03 0.03 0.03 0.03 0.02 0.01 0.01 0.01 0.01 0.03 0.02 0.02 0.02 0.04 0.05 0.04 0.03 0.02 0.02 0.02 0.03 0.02 0.02 0.02
0.00 0.00 0.01 0.00 0.00 0.01 0.01 0.00 0.00 0.01 0.01 0.01 0.01 0.01 0.01 0.01 0.01 0.01 0.02 0.02 0.02 0.03 0.02 0.01 0.02 0.01 0.01 0.02 0.02 0.02 0.02 0.03 0.04 0.06 0.04 0.03 0.02 0.02 0.02 0.03 0.03 0.03 0.03 0.03
0.00 0.00 0.00 0.00 0.00 0.00 0.00 0.00 0.00 0.00 0.00 0.00 0.01 0.01 0.01 0.01 0.01 0.01 0.01 0.02 0.02 0.01 0.02 0.01 0.01 0.00 0.01 0.02 0.02 0.03 0.04 0.04 0.05 0.04 0.02 0.02 0.02 0.03 0.04 0.04 0.04 0.04 0.04 0.03
0.00 0.00 0.00 0.00 0.00 0.00 0.00 0.00 0.00 0.00 0.00 0.00 0.00 0.00 0.00 0.00 0.01 0.01 0.01 0.02 0.02 0.01 0.01 0.01 0.01 0.01 0.01 0.02 0.02 0.03 0.02 0.03 0.03 0.02 0.02 0.02 0.02 0.03 0.04 0.05 0.04 0.04 0.04 0.04
0.00 0.00 0.00 0.00 0.00 0.00 0.00 0.00 0.00 0.00 0.01 0.00 0.00 0.00 0.00 0.00 0.00 0.01 0.01 0.01 0.02 0.01 0.01 0.01 0.01 0.02 0.02 0.01 0.01 0.01 0.01 0.01 0.01 0.01 0.01 0.01 0.01 0.01 0.02 0.03 0.04 0.04 0.04 0.04
0.00 0.00 0.00 0.00 0.00 0.00 0.00 0.00 0.01 0.01 0.01 0.00 0.00 0.00 0.00 0.00 0.00 0.00 0.01 0.01 0.01 0.01 0.01 0.01 0.01 0.01 0.01 0.01 0.01 0.01 0.01 0.01 0.01 0.01 0.01 0.01 0.00 0.01 0.01 0.02 0.02 0.03 0.03 0.02
0.00 0.00 0.00 0.00 0.00 0.00 0.00 0.00 0.01 0.01 0.01 0.00 0.00 0.00 0.00 0.00 0.00 0.00 0.01 0.01 0.01 0.01 0.01 0.01 0.01 0.01 0.01 0.01 0.01 0.02 0.01 0.01 0.01 0.01 0.01 0.01 0.01 0.00 0.00 0.01 0.01 0.01 0.01 0.01
0.00 0.00 0.00 0.00 0.00 0.00 0.00 0.01 0.01 0.01 0.01 0.01 0.00 0.00 0.00 0.00 0.00 0.00 0.01 0.01 0.01 0.01 0.02 0.01 0.01 0.01 0.01 0.01 0.01 0.01 0.01 0.01 0.01 0.01 0.01 0.01 0.01 0.01 0.01 0.01 0.01 0.01 0.01 0.01
0.00 0.00 0.01 0.00 0.00 0.00 0.00 0.01 0.01 0.01 0.01 0.01 0.01 0.00 0.00 0.00 0.00 0.00 0.01 0.01 0.01 0.02 0.02 0.01 0.01 0.01 0.01 0.01 0.02 0.02 0.02 0.02 0.02 0.01 0.01 0.01 0.01 0.00 0.00 0.01 0.01 0.01 0.00 0.01
0.01 0.01 0.01 0.01 0.00 0.00 0.00 0.01 0.01 0.01 0.02 0.01 0.01 0.00 0.00 0.00 0.00 0.00 0.01 0.01 0.02 0.02 0.02 0.02 0.01 0.01 0.01 0.02 0.03 0.03 0.03 0.02 0.02 0.01 0.01 0.01 0.01 0.00 0.00 0.00 0.00 0.00 0.00 0.00
0.00 0.01 0.01 0.00 0.00 0.00 0.00 0.01 0.01 0.02 0.02 0.01 0.01 0.01 0.00 0.01 0.00 0.00 0.01 0.01 0.02 0.02 0.01 0.01 0.01 0.01 0.01 0.01 0.02 0.02 0.03 0.02 0.02 0.01 0.01 0.00 0.00 0.00 0.00 0.00 0.00 0.00 0.00 0.00
0.01 0.01 0.01 0.00 0.00 0.00 0.00 0.01 0.01 0.02 0.01 0.01 0.02 0.01 0.01 0.00 0.00 0.00 0.00 0.01 0.01 0.01 0.01 0.01 0.01 0.01 0.01 0.01 0.01 0.02 0.02 0.01 0.01 0.01 0.01 0.00 0.00 0.00 0.00 0.00 0.00 0.00 0.00 0.00
0.01 0.01 0.01 0.00 0.00 0.00 0.01 0.01 0.01 0.02 0.01 0.01 0.01 0.02 0.01 0.01 0.00 0.01 0.01 0.01 0.01 0.01 0.01 0.02 0.01 0.01 0.01 0.01 0.01 0.01 0.01 0.01 0.00 0.00 0.00 0.00 0.00 0.00 0.00 0.00 0.00 0.00 0.00 0.00
0.00 0.00 0.01 0.00 0.00 0.01 0.01 0.01 0.01 0.01 0.01 0.01 0.01 0.02 0.02 0.01 0.01 0.01 0.02 0.01 0.02 0.02 0.01 0.01 0.01 0.01 0.01 0.01 0.01 0.01 0.01 0.01 0.00 0.00 0.00 0.00 0.00 0.00 0.00 0.00 0.00 0.00 0.00 0.00
0.01 0.00 0.01 0.00 0.00 0.01 0.01 0.01 0.01 0.01 0.01 0.01 0.01 0.02 0.01 0.01 0.01 0.02 0.02 0.01 0.01 0.01 0.01 0.01 0.02 0.02 0.02 0.01 0.01 0.01 0.01 0.01 0.00 0.00 0.00 0.00 0.00 0.00 0.00 0.00 0.00 0.00 0.00 0.00
0.01 0.01 0.01 0.01 0.01 0.01 0.01 0.01 0.01 0.01 0.01 0.01 0.01 0.01 0.01 0.01 0.01 0.01 0.01 0.01 0.01 0.01 0.01 0.01 0.02 0.02 0.02 0.01 0.01 0.01 0.02 0.01 0.00 0.00 0.00 0.00 0.00 0.00 0.00 0.00 0.00 0.00 0.00 0.00
MSLP
1022.33 1022.53 1022.71 1022.85 1022.93 1022.92 1022.79 1022.51 1022.08 1021.48 1020.74 1019.86 1018.87 1017.80 1016.70 1015.57 1014.45 1013.35 1012.29 1011.26 1010.26 1009.30 1008.35 1007.41 1006.45 1005.46 1004.41 1003.29 1002.09 1000.81 999.50 998.17 996.90 995.75 994.79 994.11 993.74 993.72 994.06 994.74 995.71 996.90 998.24 999.65
1022.38 1022.56 1022.68 1022.74 1022.73 1022.64 1022.44 1022.14 1021.70 1021.14 1020.46 1019.66 1018.75 1017.76 1016.71 1015.61 1014.49 1013.37 1012.28 1011.22 1010.20 1009.23 1008.29 1007.37 1006.44 1005.48 1004.45 1003.32 1002.09 1000.76 999.36 997.94 996.58 995.36 994.36 993.67 993.34 993.40 993.85 994.65 995.76 997.08 998.54 1000.04
1022.44 1022.57 1022.63 1022.62 1022.54 1022.38 1022.13 1021.80 1021.37 1020.85 1020.23 1019.50 1018.68 1017.76 1016.77 1015.71 1014.61 1013.49 1012.38 1011.30 1010.27 1009.30 1008.37 1007.47 1006.57 1005.63 1004.61 1003.48 1002.22 1000.85 999.39 997.92 996.51 995.25 994.24 993.58 993.31 993.46 994.01 994.94 996.16 997.59 999.13 1000.69
1022.56 1022.63 1022.62 1022.54 1022.39 1022.17 1021.88 1021.53 1021.11 1020.61 1020.04 1019.38 1018.62 1017.78 1016.84 1015.83 1014.76 1013.66 1012.56 1011.49 1010.48 1009.52 1008.61 1007.73 1006.86 1005.93 1004.92 1003.79 1002.53 1001.14 999.67 998.19 996.77 995.53 994.57 993.96 993.77 994.01 994.66 995.68 996.99 998.47 1000.05 1001.60
1022.74 1022.73 1022.66 1022.51 1022.29 1022.01 1021.68 1021.30 1020.87 1020.39 1019.85 1019.23 1018.53 1017.75 1016.87 1015.91 1014.90 1013.85 1012.79 1011.76 1010.77 1009.85 1008.98 1008.13 1007.29 1006.39 1005.41 1004.30 1003.06 1001.70 1000.27 998.82 997.47 996.29 995.41 994.89 994.79 995.12 995.84 996.91 998.24 999.73 1001.27 1002.77
1022.90 1022.83 1022.68 1022.46 1022.18 1021.85 1021.48 1021.07 1020.62 1020.14 1019.61 1019.02 1018.36 1017.63 1016.81 1015.92 1014.97 1013.99 1013.01 1012.04 1011.12 1010.26 1009.44 1008.65 1007.85 1007.01 1006.07 1005.02 1003.85 1002.56 1001.22 999.87 998.63 997.57 996.80 996.39 996.38 996.77 997.53 998.60 999.90 1001.32 1002.76 1004.14
1022.97 1022.82 1022.60 1022.33 1021.99 1021.62 1021.21 1020.77 1020.30 1019.81 1019.28 1018.71 1018.09 1017.40 1016.65 1015.83 1014.97 1014.08 1013.19 1012.31 1011.48 1010.70 1009.95 1009.23 1008.51 1007.73 1006.88 1005.93 1004.86 1003.71 1002.50 1001.32 1000.24 999.33 998.70 998.40 998.47 998.89 999.64 1000.65 1001.85 1003.13 1004.41 1005.62
1022.83 1022.62 1022.35 1022.03 1021.67 1021.27 1020.84 1020.38 1019.90 1019.40 1018.87 1018.32 1017.72 1017.08 1016.39 1015.66 1014.89 1014.11 1013.32 1012.55 1011.82 1011.14 1010.48 1009.85 1009.21 1008.53 1007.79 1006.97 1006.05 1005.07 1004.06 1003.07 1002.18 1001.46 1000.98 1000.78 1000.90 1001.32 1002.00 1002.90 1003.94 1005.04 1006.11 1007.10
1022.43 1022.18 1021.89 1021.56 1021.20 1020.80 1020.37 1019.92 1019.44 1018.94 1018.43 1017.89 1017.33 1016.73 1016.11 1015.46 1014.79 1014.11 1013.43 1012.78 1012.15 1011.56 1011.01 1010.47 1009.92 1009.35 1008.74 1008.06 1007.33 1006.54 1005.74 1004.98 1004.30 1003.76 1003.43 1003.32 1003.46 1003.84 1004.42 1005.17 1006.00 1006.87 1007.71 1008.47
1021.78 1021.51 1021.23 1020.93 1020.61 1020.25 1019.85 1019.43 1018.98 1018.50 1018.01 1017.50 1016.97 1016.43 1015.87 1015.30 1014.72 1014.13 1013.56 1013.01 1012.48 1011.99 1011.51 1011.06 1010.61 1010.15 1009.66 1009.14 1008.58 1008.00 1007.42 1006.87 1006.40 1006.04 1005.83 1005.79 1005.93 1006.24 1006.70 1007.26 1007.88 1008.51 1009.11 1009.65
1020.95 1020.71 1020.48 1020.24 1019.98 1019.69 1019.36 1018.99 1018.59 1018.15 1017.69 1017.21 1016.73 1016.23 1015.73 1015.23 1014.73 1014.24 1013.76 1013.29 1012.85 1012.42 1012.02 1011.63 1011.26 1010.88 1010.51 1010.12 1009.72 1009.32 1008.94 1008.59 1008.30 1008.09 1007.99 1007.99 1008.12 1008.35 1008.66 1009.04 1009.45 1009.86 1010.25 1010.60
1020.07 1019.88 1019.72 1019.58 1019.41 1019.21 1018.97 1018.67 1018.33 1017.94 1017.52 1017.08 1016.63 1016.18 1015.73 1015.30 1014.87 1014.45 1014.04 1013.65 1013.26 1012.89 1012.54 1012.20 1011.87 1011.56 1011.26 1010.98 1010.70 1010.45 1010.22 1010.03 1009.89 1009.79 1009.76 1009.80 1009.89 1010.04 1010.23 1010.45 1010.68 1010.92 1011.14 1011.34
1019.25 1019.14 1019.08 1019.04 1018.98 1018.88 1018.72 1018.49 1018.21 1017.86 1017.48 1017.08 1016.66 1016.25 1015.86 1015.48 1015.11 1014.76 1014.42 1014.08 1013.74 1013.41 1013.09 1012.77 1012.47 1012.20 1011.94 1011.72 1011.53 1011.38 1011.26 1011.17 1011.13 1011.11 1011.13 1011.18 1011.25 1011.33 1011.43 1011.52 1011.63 1011.73 1011.84 1011.95
1018.60 1018.58 1018.62 1018.67 1018.71 1018.70 1018.61 1018.45 1018.20 1017.89 1017.54 1017.16 1016.77 1016.40 1016.05 1015.72 1015.41 1015.12 1014.84 1014.56 1014.27 1013.97 1013.68 1013.38 1013.09 1012.82 1012.59 1012.39 1012.24 1012.14 1012.08 1012.06 1012.07 1012.10 1012.15 1012.20 1012.25 1012.29 1012.32 1012.35 1012.37 1012.40 1012.44 1012.51
1018.14 1018.20 1018.33 1018.47 1018.58 1018.63 1018.60 1018.47 1018.25 1017.96 1017.62 1017.25 1016.89 1016.54 1016.23 1015.95 1015.71 1015.49 1015.27 1015.05 1014.82 1014.56 1014.29 1014.01 1013.73 1013.47 1013.23 1013.04 1012.90 1012.80 1012.76 1012.76 1012.79 1012.85 1012.90 1012.96 1013.00 1013.02 1013.03 1013.02 1013.02 1013.02 1013.05 1013.11
1017.85 1018.00 1018.19 1018.39 1018.55 1018.63 1018.61 1018.49 1018.28 1017.98 1017.64 1017.28 1016.93 1016.61 1016.34 1016.12 1015.94 1015.79 1015.65 1015.51 1015.34 1015.14 1014.92 1014.66 1014.40 1014.14 1013.90 1013.70 1013.54 1013.44 1013.39 1013.38 1013.41 1013.46 1013.52 1013.58 1013.62 1013.64 1013.65 1013.65 1013.65 1013.66 1013.70 1013.78
1017.69 1017.89 1018.13 1018.36 1018.53 1018.62 1018.60 1018.46 1018.23 1017.92 1017.57 1017.20 1016.86 1016.57 1016.34 1016.18 1016.07 1016.00 1015.94 1015.88 1015.79 1015.67 1015.50 1015.30 1015.06 1014.82 1014.58 1014.37 1014.20 1014.07 1014.00 1013.98 1013.99 1014.03 1014.08 1014.13 1014.18 1014.22 1014.25 1014.27 1014.30 1014.34 1014.40 1014.49
1017.60 1017.83 1018.08 1018.32 1018.48 1018.55 1018.51 1018.35 1018.09 1017.76 1017.40 1017.03 1016.70 1016.44 1016.25 1016.14 1016.10 1016.10 1016.13 1016.15 1016.15 1016.11 1016.01 1015.87 1015.68 1015.47 1015.24 1015.03 1014.85 1014.71 1014.62 1014.57 1014.56 1014.57 1014.62 1014.67 1014.72 1014.77 1014.82 1014.87 1014.92 1014.99 1015.07 1015.18
1017.53 1017.77 1018.02 1018.24 1018.39 1018.43 1018.36 1018.17 1017.89 1017.55 1017.17 1016.81 1016.50 1016.26 1016.10 1016.03 1016.04 1016.11 1016.21 1016.31 1016.39 1016.42 1016.40 1016.32 1016.19 1016.02 1015.83 1015.64 1015.46 1015.31 1015.20 1015.12 1015.09 1015.09 1015.11 1015.15 1015.20 1015.26 1015.32 1015.39 1015.46 1015.54 1015.64 1015.74
1017.49 1017.72 1017.95 1018.14 1018.26 1018.27 1018.17 1017.97 1017.68 1017.34 1016.97 1016.62 1016.32 1016.09 1015.96 1015.92 1015.96 1016.07 1016.21 1016.36 1016.50 1016.59 1016.63 1016.61 1016.54 1016.42 1016.27 1016.11 1015.95 1015.80 1015.69 1015.60 1015.55 1015.52 1015.53 1015.55 1015.59 1015.64 1015.70 1015.76 1015.84 1015.92 1016.00 1016.09
1017.48 1017.68 1017.88 1018.04 1018.13 1018.12 1018.01 1017.80 1017.52 1017.18 1016.83 1016.50 1016.22 1016.00 1015.88 1015.85 1015.89 1016.00 1016.16 1016.32 1016.48 1016.61 1016.69 1016.72 1016.70 1016.63 1016.52 1016.40 1016.27 1016.14 1016.03 1015.94 1015.87 1015.83 1015.81 1015.81 1015.82 1015.85 1015.89 1015.94 1015.99 1016.05 1016.12 1016.18
1017.52 1017.68 1017.84 1017.96 1018.02 1017.99 1017.88 1017.69 1017.42 1017.11 1016.79 1016.48 1016.21 1016.00 1015.87 1015.82 1015.84 1015.93 1016.05 1016.20 1016.35 1016.48 1016.58 1016.63 1016.65 1016.62 1016.57 1016.48 1016.39 1016.29 1016.19 1016.11 1016.03 1015.97 1015.93 1015.90 1015.88 1015.88 1015.89 1015.90 1015.93 1015.96 1015.99 1016.02
1017.60 1017.71 1017.82 1017.89 1017.92 1017.89 1017.78 1017.60 1017.37 1017.10 1016.81 1016.52 1016.26 1016.05 1015.90 1015.81 1015.79 1015.82 1015.89 1015.99 1016.10 1016.21 1016.30 1016.37 1016.41 1016.42 1016.41 1016.37 1016.32 1016.25 1016.18 1016.11 1016.04 1015.97 1015.90 1015.84 1015.79 1015.75 1015.72 1015.69 1015.68 1015.67 1015.67 1015.66
1017.68 1017.72 1017.77 1017.80 1017.80 1017.75 1017.65 1017.50 1017.30 1017.07 1016.81 1016.55 1016.30 1016.08 1015.90 1015.77 1015.68 1015.65 1015.65 1015.69 1015.74 1015.81 1015.89 1015.95 1016.01 1016.05 1016.08 1016.09 1016.08 1016.05 1016.01 1015.96 1015.90 1015.82 1015.74 1015.66 1015.58 1015.50 1015.43 1015.37 1015.32 1015.28 1015.24 1015.21
1017.68 1017.65 1017.63 1017.61 1017.58 1017.52 1017.43 1017.30 1017.14 1016.94 1016.71 1016.48 1016.24 1016.01 1015.80 1015.62 1015.48 1015.38 1015.31 1015.28 1015.28 1015.31 1015.36 1015.42 1015.49 1015.56 1015.62 1015.68 1015.71 1015.73 1015.72 1015.69 1015.64 1015.57 1015.49 1015.39 1015.29 1015.19 1015.09 1015.00 1014.92 1014.86 1014.80 1014.74
1017.52 1017.42 1017.33 1017.27 1017.20 1017.13 1017.05 1016.94 1016.80 1016.64 1016.44 1016.23 1016.00 1015.77 1015.54 1015.33 1015.14 1014.98 1014.86 1014.78 1014.73 1014.73 1014.76 1014.81 1014.89 1014.98 1015.08 1015.17 1015.25 1015.30 1015.33 1015.33 1015.30 1015.24 1015.16 1015.06 1014.95 1014.84 1014.73 1014.63 1014.54 1014.46 1014.39 1014.33
1017.12 1016.96 1016.82 1016.71 1016.62 1016.55 1016.46 1016.37 1016.26 1016.13 1015.97 1015.78 1015.57 1015.34 1015.11 1014.88 1014.66 1014.47 1014.31 1014.19 1014.11 1014.09 1014.10 1014.16 1014.24 1014.35 1014.47 1014.59 1014.70 1014.79 1014.84 1014.87 1014.86 1014.82 1014.75 1014.66 1014.56 1014.46 1014.35 1014.26 1014.17 1014.10 1014.03 1013.97
Thickness
5666 5669 5666 5662 5660 5657 5648 5642 5635 5639 5639 5644 5644 5642 5641 5641 5639 5637 5634 5632 5630 5628 5626 5625 5624 5624 5623 5623 5623 5622 5621 5621 5620 5620 5620 5620 5620 5620 5619 5619 5618 5616 5614 5612
5661 5666 5662 5657 5655 5654 5649 5645 5640 5639 5638 5644 5642 5639 5638 5636 5634 5631 5629 5628 5627 5625 5623 5621 5620 5619 5619 5619 5619 5618 5617 5617 5617 5617 5616 5617 5617 5616 5615 5614 5613 5611 5609 5608
5647 5654 5654 5644 5648 5646 5644 5643 5639 5634 5636 5638 5636 5634 5632 5631 5629 5627 5626 5624 5623 5621 5619 5618 5616 5615 5614 5615 5615 5614 5614 5614 5614 5614 5613 5614 5614 5613 5611 5610 5609 5608 5606 5604
5636 5642 5635 5643 5652 5648 5642 5641 5640 5635 5633 5633 5631 5630 5629 5627 5625 5624 5623 5621 5619 5618 5616 5615 5613 5612 5611 5611 5611 5611 5611 5611 5611 5610 5610 5610 5610 5609 5608 5607 5605 5604 5602 5601
5625 5626 5629 5641 5646 5642 5636 5633 5637 5631 5630 5629 5627 5626 5626 5627 5624 5621 5619 5618 5616 5615 5613 5612 5610 5608 5608 5608 5608 5608 5608 5608 5608 5607 5606 5606 5606 5605 5605 5604 5602 5601 5599 5598
5623 5623 5619 5632 5644 5645 5635 5625 5633 5629 5625 5623 5620 5613 5618 5625 5622 5620 5618 5617 5615 5614 5612 5609 5607 5605 5604 5604 5605 5605 5606 5605 5605 5604 5603 5603 5603 5602 5601 5601 5600 5598 5597 5596
5618 5614 5620 5636 5641 5638 5618 5617 5629 5626 5622 5618 5614 5613 5617 5620 5619 5618 5617 5615 5614 5611 5609 5607 5605 5603 5602 5602 5602 5603 5604 5603 5602 5602 5601 5601 5600 5600 5599 5598 5597 5595 5595 5594
5611 5609 5616 5637 5633 5624 5619 5625 5625 5623 5620 5617 5616 5616 5616 5616 5615 5615 5614 5613 5611 5608 5606 5604 5602 5599 5599 5599 5601 5602 5602 5601 5600 5600 5599 5599 5598 5598 5597 5595 5594 5593 5592 5591
5616 5618 5628 5630 5628 5628 5624 5621 5622 5619 5619 5616 5614 5613 5614 5613 5613 5612 5611 5610 5608 5605 5604 5602 5599 5597 5596 5599 5600 5600 5600 5599 5599 5598 5597 5597 5596 5596 5595 5593 5591 5590 5589 5588
5616 5621 5626 5627 5625 5624 5622 5620 5620 5618 5616 5613 5611 5611 5610 5610 5609 5609 5608 5606 5605 5602 5601 5600 5599 5597 5597 5598 5599 5598 5598 5598 5597 5597 5597 5596 5596 5595 5593 5591 5590 5589 5588 5587
5611 5617 5619 5622 5621 5620 5619 5618 5617 5615 5613 5610 5608 5607 5607 5606 5606 5605 5605 5604 5602 5600 5599 5599 5598 5597 5598 5598 5598 5597 5597 5597 5597 5597 5597 5596 5596 5594 5594 5592 5591 5589 5588 5585
5607 5613 5609 5612 5616 5616 5613 5612 5611 5609 5608 5607 5605 5603 5603 5602 5602 5602 5601 5601 5600 5599 5599 5599 5598 5597 5598 5598 5598 5597 5597 5597 5597 5597 5598 5597 5596 5596 5595 5593 5591 5589 5586 5584
5611 5613 5609 5610 5611 5611 5608 5607 5607 5604 5602 5601 5601 5600 5599 5598 5598 5598 5598 5598 5598 5598 5598 5598 5597 5598 5599 5599 5598 5598 5598 5598 5598 5598 5598 5598 5597 5596 5594 5593 5591 5589 5586 5584
5609 5606 5604 5605 5604 5605 5603 5603 5601 5600 5598 5597 5596 5596 5595 5594 5594 5594 5595 5596 5596 5596 5597 5597 5597 5598 5600 5599 5599 5599 5600 5600 5599 5599 5599 5598 5597 5596 5594 5592 5590 5588 5586 5583
5604 5602 5599 5599 5599 5598 5597 5596 5594 5593 5593 5592 5592 5592 5591 5590 5590 5592 5593 5594 5594 5594 5595 5596 5597 5598 5599 5599 5599 5600 5600 5600 5600 5600 5599 5598 5597 5596 5594 5592 5590 5587 5585 5583
5597 5596 5594 5593 5591 5591 5590 5588 5586 5586 5587 5587 5587 5587 5587 5587 5588 5589 5591 5591 5591 5592 5594 5595 5596 5598 5599 5599 5599 5600 5601 5601 5601 5600 5599 5598 5597 5596 5594 5592 5589 5587 5584 5582
5587 5586 5586 5585 5585 5584 5583 5582 5581 5581 5582 5582 5583 5584 5584 5584 5585 5586 5588 5590 5590 5592 5593 5594 5596 5599 5599 5599 5600 5601 5601 5602 5601 5600 5599 5598 5597 5595 5593 5591 5588 5586 5583 5581
5582 5581 5580 5579 5578 5578 5577 5577 5577 5577 5578 5579 5580 5580 5580 5580 5581 5584 5586 5588 5589 5591 5593 5595 5597 5598 5599 5600 5600 5601 5601 5601 5601 5600 5599 5598 5596 5594 5591 5589 5587 5585 5582 5580
5576 5575 5575 5575 5574 5573 5573 5573 5574 5574 5575 5576 5576 5576 5577 5578 5580 5582 5584 5585 5586 5588 5593 5595 5596 5597 5598 5600 5600 5600 5600 5601 5600 5599 5598 5597 5595 5592 5590 5588 5586 5584 5581 5578
5569 5569 5569 5570 5571 5570 5570 5571 5571 5571 5572 5572 5573 5574 5575 5577 5579 5580 5582 5583 5586 5588 5592 5594 5595 5597 5598 5600 5600 5600 5600 5600 5599 5599 5597 5596 5593 5591 5589 5587 5585 5582 5580 5576
5561 5562 5563 5563 5564 5565 5566 5567 5567 5568 5569 5570 5570 5572 5574 5575 5577 5578 5580 5583 5587 5589 5590 5592 5594 5596 5597 5598 5599 5599 5599 5598 5598 5597 5596 5594 5592 5590 5588 5585 5583 5581 5578 5574
5552 5554 5555 5556 5557 5558 5560 5561 5562 5563 5565 5567 5568 5570 5571 5573 5575 5577 5579 5581 5586 5587 5589 5591 5593 5594 5595 5596 5597 5598 5597 5597 5596 5595 5594 5593 5591 5589 5586 5584 5582 5579 5576 5573
5544 5546 5547 5549 5550 5552 5554 5556 5557 5559 5561 5564 5565 5567 5569 5571 5573 5574 5578 5582 5584 5586 5587 5590 5591 5592 5592 5594 5595 5596 5596 5596 5595 5595 5593 5592 5590 5588 5586 5583 5581 5578 5575 5571
5537 5539 5541 5543 5544 5545 5547 5551 5553 5555 5558 5561 5563 5566 5567 5570 5573 5576 5578 5581 5582 5584 5586 5588 5589 5590 5590 5592 5593 5594 5595 5595 5594 5594 5593 5592 5590 5588 5586 5583 5580 5577 5574 5570
5530 5532 5534 5535 5536 5539 5542 5545 5548 5551 5555 5558 5562 5565 5567 5569 5572 5576 5578 5580 5582 5583 5586 5588 5588 5588 5590 5591 5592 5593 5593 5594 5594 5593 5592 5591 5590 5588 5585 5583 5580 5576 5573 5569
5523 5525 5527 5529 5530 5533 5536 5539 5542 5547 5550 5554 5559 5563 5565 5568 5571 5574 5577 5579 5581 5582 5584 5586 5587 5587 5589 5590 5591 5592 5593 5593 5593 5592 5592 5591 5590 5588 5585 5583 5580 5576 5572 5568
5517 5519 5521 5525 5528 5530 5532 5535 5538 5543 5546 5550 5554 5560 5563 5566 5569 5572 5575 5578 5580 5582 5583 5585 5586 5587 5588 5589 5590 5590 5591 5592 5592 5592 5592 5591 5589 5587 5585 5582 5579 5575 5572 5568